Location: Artiguedieu
(43.5000°N, 0.5454°E)
Time: 11:52:01
(UTC+00:00)

Cosmos 2327 Rocket - Pass Details

Date: 06 December 2020
Orbit: 945 x 1007 km, 83.0° (Epoch: 27 January)

Event Time Altitude Azimuth Distance (km) Brightness Sun altitude
Rises 04:54:01 0° 186° (S) 3,602 7.5 -25.0°
Reaches altitude 10° 04:56:29 10° 187° (S) 2,658 6.8 -24.6°
Maximum altitude 05:02:33 87° 275° (W) 952 4.3 -23.5°
Drops below altitude 10° 05:08:42 10° 7° (N) 2,680 6.8 -22.4°
Sets 05:11:12 0° 8° (N) 3,634 7.5 -21.9°
